When you browse on this site, cookies collect data to enhance your experience and personalize the content and advertising you see.
Visit our Privacy Policy to learn more. By continuing to use the site, you agree to this use of cookies and data.
  • In Latvia
  • List of Countries
  • For 7 days
  • Water Temperature
  • Satellite Maps
  • Weather Map
  • Weather Widgets
  • user-avatar
    Login

    Hourly Weather Sevastopolskaya

    Today, 26 May, Sunday

    Time Temperature Precipitation Wind Pressure Humidity
    00:00 +14°C° 0 mm 2 mps 722 mmHg 86%
    01:00 +13°C° 0 mm 2 mps 722 mmHg 86%
    02:00 +13°C° 0 mm 2 mps 722 mmHg 85%
    03:00 +13°C° 0 mm 1 mps 722 mmHg 84%
    04:00 +14°C° 0 mm 1 mps 722 mmHg 83%
    05:00 +14°C° 0 mm 1 mps 722 mmHg 82%
    06:00 +15°C° 0 mm 1 mps 723 mmHg 81%
    07:00 +17°C° 0 mm 2 mps 723 mmHg 72%
    08:00 +19°C° 0 mm 2 mps 723 mmHg 63%
    09:00 +21°C° 0 mm 2 mps 724 mmHg 54%
    10:00 +22°C° 0.2 mm 3 mps 724 mmHg 50%
    11:00 +24°C° 0.2 mm 3 mps 724 mmHg 46%
    12:00 +25°C° 0.2 mm 4 mps 724 mmHg 42%
    13:00 +25°C° 0 mm 4 mps 724 mmHg 42%
    14:00 +25°C° 0 mm 4 mps 724 mmHg 41%
    15:00 +25°C° 0 mm 5 mps 725 mmHg 41%
    16:00 +23°C° 0 mm 4 mps 724 mmHg 47%
    17:00 +22°C° 0 mm 4 mps 724 mmHg 53%
    18:00 +21°C° 0 mm 3 mps 724 mmHg 59%
    19:00 +19°C° 0 mm 3 mps 725 mmHg 62%
    20:00 +18°C° 0 mm 2 mps 725 mmHg 66%
    21:00 +16°C° 0 mm 2 mps 725 mmHg 69%
    22:00 +16°C° 0 mm 2 mps 725 mmHg 69%
    23:00 +15°C° 0 mm 2 mps 725 mmHg 70%

    Tomorrow, 27 May, Monday

    Time Temperature Precipitation Wind Pressure Humidity
    00:00 +15°C° 0 mm 2 mps 726 mmHg 70%
    01:00 +15°C° 0 mm 2 mps 726 mmHg 72%
    02:00 +14°C° 0 mm 2 mps 726 mmHg 73%
    03:00 +14°C° 0 mm 2 mps 726 mmHg 75%
    04:00 +14°C° 0 mm 2 mps 726 mmHg 76%
    05:00 +15°C° 0 mm 2 mps 726 mmHg 77%
    06:00 +15°C° 0 mm 2 mps 727 mmHg 77%
    07:00 +17°C° 0 mm 2 mps 727 mmHg 70%
    08:00 +20°C° 0 mm 3 mps 727 mmHg 62%
    09:00 +22°C° 0 mm 3 mps 727 mmHg 55%
    10:00 +22°C° 0.1 mm 3 mps 727 mmHg 54%
    11:00 +24°C° 0.1 mm 3 mps 728 mmHg 53%
    12:00 +25°C° 0.1 mm 4 mps 728 mmHg 52%
    13:00 +25°C° 0.2 mm 4 mps 728 mmHg 54%
    14:00 +25°C° 0.2 mm 4 mps 728 mmHg 56%
    15:00 +25°C° 0.2 mm 4 mps 728 mmHg 57%
    16:00 +24°C° 0.2 mm 3 mps 727 mmHg 64%
    17:00 +22°C° 0.2 mm 3 mps 727 mmHg 70%
    18:00 +21°C° 0.2 mm 2 mps 727 mmHg 76%
    19:00 +19°C° 0.1 mm 2 mps 727 mmHg 82%
    20:00 +18°C° 0.1 mm 1 mps 727 mmHg 88%
    21:00 +16°C° 0.1 mm 1 mps 727 mmHg 94%
    22:00 +15°C° 0 mm 1 mps 728 mmHg 94%
    23:00 +15°C° 0 mm 1 mps 728 mmHg 94%

    Day after tomorrow, 28 May, Tuesday

    Time Temperature Precipitation Wind Pressure Humidity
    00:00 +14°C° 0 mm 1 mps 728 mmHg 94%
    01:00 +14°C° 0 mm 1 mps 727 mmHg 93%
    02:00 +13°C° 0 mm 1 mps 727 mmHg 91%
    03:00 +13°C° 0 mm 1 mps 727 mmHg 90%
    04:00 +13°C° 0 mm 1 mps 727 mmHg 88%
    05:00 +14°C° 0 mm 1 mps 727 mmHg 87%
    06:00 +14°C° 0 mm 1 mps 727 mmHg 86%
    07:00 +17°C° 0 mm 2 mps 727 mmHg 76%
    08:00 +19°C° 0 mm 2 mps 728 mmHg 67%
    09:00 +23°C° 0 mm 2 mps 728 mmHg 58%
    10:00 +24°C° 0 mm 3 mps 728 mmHg 55%
    11:00 +25°C° 0 mm 3 mps 728 mmHg 52%
    12:00 +26°C° 0 mm 3 mps 728 mmHg 50%
    13:00 +26°C° 0 mm 4 mps 727 mmHg 51%
    14:00 +26°C° 0 mm 4 mps 727 mmHg 52%
    15:00 +27°C° 0 mm 4 mps 727 mmHg 52%
    16:00 +26°C° 0 mm 4 mps 727 mmHg 57%
    17:00 +25°C° 0 mm 3 mps 726 mmHg 62%
    18:00 +25°C° 0 mm 3 mps 726 mmHg 67%
    19:00 +22°C° 0 mm 3 mps 726 mmHg 75%
    20:00 +20°C° 0 mm 2 mps 726 mmHg 83%
    21:00 +18°C° 0 mm 2 mps 726 mmHg 91%
    22:00 +17°C° 0 mm 2 mps 726 mmHg 91%
    23:00 +16°C° 0 mm 2 mps 726 mmHg 90%

    29 May, Wednesday

    Time Temperature Precipitation Wind Pressure Humidity
    00:00 +16°C° 0 mm 2 mps 725 mmHg 90%
    01:00 +16°C° 0 mm 2 mps 725 mmHg 89%
    02:00 +15°C° 0 mm 2 mps 725 mmHg 88%
    03:00 +15°C° 0 mm 1 mps 725 mmHg 86%
    04:00 +16°C° 0 mm 1 mps 725 mmHg 85%
    05:00 +16°C° 0 mm 1 mps 725 mmHg 84%
    06:00 +18°C° 0 mm 1 mps 725 mmHg 82%
    07:00 +20°C° 0 mm 1 mps 725 mmHg 72%
    08:00 +23°C° 0 mm 1 mps 725 mmHg 62%
    09:00 +26°C° 0 mm 1 mps 726 mmHg 52%
    10:00 +27°C° 0 mm 2 mps 725 mmHg 48%
    11:00 +28°C° 0 mm 2 mps 725 mmHg 45%
    12:00 +29°C° 0 mm 3 mps 725 mmHg 41%
    13:00 +29°C° 0 mm 3 mps 725 mmHg 42%
    14:00 +29°C° 0 mm 3 mps 725 mmHg 44%
    15:00 +29°C° 0 mm 4 mps 725 mmHg 46%
    16:00 +28°C° 0 mm 3 mps 724 mmHg 52%
    17:00 +27°C° 0 mm 3 mps 724 mmHg 59%
    18:00 +26°C° 0 mm 3 mps 724 mmHg 66%
    19:00 +24°C° 0 mm 2 mps 724 mmHg 74%
    20:00 +21°C° 0 mm 2 mps 724 mmHg 82%
    21:00 +19°C° 0 mm 2 mps 724 mmHg 89%
    22:00 +18°C° 0 mm 2 mps 724 mmHg 90%
    23:00 +18°C° 0 mm 2 mps 724 mmHg 90%

    30 May, Thursday

    Time Temperature Precipitation Wind Pressure Humidity
    00:00 +17°C° 0 mm 2 mps 723 mmHg 90%
    01:00 +17°C° 0 mm 2 mps 723 mmHg 88%
    02:00 +17°C° 0 mm 2 mps 723 mmHg 86%
    03:00 +17°C° 0 mm 2 mps 723 mmHg 84%
    04:00 +18°C° 0 mm 1 mps 723 mmHg 82%
    05:00 +19°C° 0 mm 1 mps 724 mmHg 80%
    06:00 +19°C° 0 mm 1 mps 724 mmHg 79%
    07:00 +22°C° 0 mm 1 mps 724 mmHg 70%
    08:00 +25°C° 0 mm 1 mps 724 mmHg 61%
    09:00 +28°C° 0 mm 1 mps 724 mmHg 52%
    10:00 +28°C° 0 mm 1 mps 724 mmHg 49%
    11:00 +29°C° 0 mm 2 mps 724 mmHg 46%
    12:00 +30°C° 0 mm 2 mps 724 mmHg 43%
    13:00 +30°C° 0 mm 2 mps 724 mmHg 43%
    14:00 +30°C° 0 mm 3 mps 724 mmHg 44%
    15:00 +30°C° 0 mm 3 mps 724 mmHg 45%
    16:00 +29°C° 0 mm 3 mps 723 mmHg 52%
    17:00 +28°C° 0 mm 3 mps 723 mmHg 59%
    18:00 +27°C° 0 mm 2 mps 723 mmHg 66%
    19:00 +25°C° 0 mm 2 mps 723 mmHg 73%
    20:00 +23°C° 0 mm 2 mps 723 mmHg 80%
    21:00 +20°C° 0 mm 2 mps 723 mmHg 88%
    22:00 +19°C° 0 mm 2 mps 723 mmHg 88%
    23:00 +19°C° 0 mm 2 mps 723 mmHg 88%

    31 May, Friday

    Time Temperature Precipitation Wind Pressure Humidity
    00:00 +18°C° 0 mm 2 mps 723 mmHg 89%
    01:00 +18°C° 0 mm 2 mps 722 mmHg 87%
    02:00 +17°C° 0 mm 2 mps 722 mmHg 86%
    03:00 +17°C° 0 mm 2 mps 722 mmHg 85%
    04:00 +19°C° 0 mm 1 mps 722 mmHg 83%
    05:00 +19°C° 0 mm 1 mps 722 mmHg 82%
    06:00 +20°C° 0 mm 1 mps 723 mmHg 80%
    07:00 +22°C° 0 mm 1 mps 723 mmHg 71%
    08:00 +25°C° 0 mm 1 mps 723 mmHg 62%
    09:00 +28°C° 0 mm 1 mps 723 mmHg 53%
    10:00 +29°C° 0 mm 1 mps 723 mmHg 49%
    11:00 +29°C° 0 mm 2 mps 723 mmHg 45%
    12:00 +30°C° 0 mm 3 mps 723 mmHg 41%
    13:00 +30°C° 0 mm 3 mps 723 mmHg 42%
    14:00 +31°C° 0 mm 3 mps 723 mmHg 42%
    15:00 +31°C° 0 mm 3 mps 723 mmHg 43%
    16:00 +30°C° 0 mm 3 mps 722 mmHg 49%
    17:00 +29°C° 0 mm 3 mps 722 mmHg 56%
    18:00 +28°C° 0 mm 3 mps 722 mmHg 62%
    19:00 +26°C° 0 mm 3 mps 722 mmHg 70%
    20:00 +24°C° 0 mm 2 mps 722 mmHg 78%
    21:00 +21°C° 0 mm 2 mps 722 mmHg 86%
    22:00 +20°C° 0 mm 2 mps 722 mmHg 87%
    23:00 +19°C° 0 mm 2 mps 722 mmHg 89%
    Show more